#timestamp,LO_Frequency,Hit 
1499976015.4,286047021.5,N
1499976035.3,286047021.5,N
1499976055.1,286047023.6,N
1499976075.8,286047022.1,N
1499976095.7,286047022.5,N
1499976115.5,286047024.5,N
1499976135.3,286047022.3,N
1499976155.2,286047024.3,N
1499976175.9,286047025.6,N
1499976195.7,286047026.1,N
1499976215.6,286047026.1,N
1499976235.4,286047026.7,N
1499976255.2,286047026.0,N
1499976275.1,286047025.5,N
1499976276.0,286047025.5,N
1499976295.8,286047027.1,N
1499976315.6,286047027.7,N
1499976335.5,286047025.8,N
1499976355.3,286047025.7,N
1499976375.1,286047027.9,N
1499976395.9,286047027.1,N
1499976415.7,286047028.5,N
1499976435.5,286047029.6,N
1499976455.3,286047028.5,N
1499976475.2,286047030.0,N
1499976495.0,286047027.1,N
1499976495.9,286047027.1,N
1499976515.7,286047028.1,N
1499976535.6,286047027.3,N
1499976555.4,286047031.0,N
1499976575.2,286047030.1,N
1499976595.1,286047031.1,N
1499976596.0,286047031.1,N
1499976615.8,286047033.2,N
1499976635.6,286047036.3,N
1499976655.5,286047034.2,N
1499976675.3,286047032.1,N
1499976695.1,286047036.3,N
1499976715.9,286047033.3,N
1499976735.7,286047034.9,N
1499976755.5,286047037.5,N
1499976775.3,286047036.3,N
1499976795.2,286047037.6,N
1499976815.0,286047035.5,N
1499976815.9,286047035.5,N
1499976835.7,286047035.6,N
1499976855.6,286047037.3,N
1499976875.4,286047038.0,N
1499976895.2,286047037.6,N
1499976915.1,286047037.4,N
1499976916.0,286047037.4,N
1499976935.8,286047037.4,N
1499976955.6,286047035.0,N
1499976975.5,286047035.4,N
1499976995.3,286047037.8,N
1499977015.1,286047036.8,N
1499977035.9,286047037.0,N
1499977055.7,286047036.6,N
1499977075.5,286047036.8,N
1499977095.4,286047038.9,N
1499977115.2,286047038.9,N
1499977135.0,286047039.3,N
1499977135.9,286047039.3,N
1499977155.8,286047037.3,N
1499977175.6,286047037.1,N
1499977195.4,286047037.0,N
1499977215.3,286047037.3,N
1499977235.1,286047036.9,N
1499977236.0,286047036.9,N
1499977255.8,286047039.6,N
1499977275.6,286047036.7,N
1499977295.5,286047037.0,N
1499977315.3,286047036.5,N
1499977335.1,286047038.2,N
1499977355.9,286047038.5,N
1499977375.7,286047038.9,N
1499977395.5,286047039.7,N
1499977415.4,286047039.7,N
1499977435.2,286047042.7,N
1499977455.0,286047041.3,N
1499977455.9,286047041.3,N
1499977475.8,286047043.1,N
1499977495.6,286047041.5,N
1499977515.4,286047041.7,N
1499977535.3,286047042.6,N
1499977555.1,286047041.4,N
1499977556.0,286047041.4,N
1499977575.8,286047041.6,N
1499977595.7,286047041.8,N
1499977615.5,286047042.5,N
1499977635.3,286047041.8,N
1499977655.1,286047044.2,N
1499977675.9,286047043.3,N
1499977695.7,286047043.8,N
1499977715.5,286047045.5,N
1499977735.4,286047044.8,N
1499977755.2,286047048.7,N
1499977775.0,286047046.2,N
1499977775.9,286047046.2,N
1499977795.8,286047046.4,N
1499977815.6,286047047.6,N
1499977835.4,286047046.3,N
1499977855.3,286047048.8,N
1499977875.1,286047047.8,N
1499977876.0,286047047.8,N
1499977895.8,286047050.4,N
1499977915.7,286047048.0,N
1499977935.5,286047048.0,N
1499977955.3,286047050.8,N
1499977975.2,286047047.8,N
1499977995.9,286047050.0,N
1499978015.7,286047050.5,N
1499978035.6,286047051.9,N
1499978055.4,286047052.1,N
1499978075.2,286047051.9,N
1499978095.0,286047052.1,N
1499978096.0,286047052.1,N
1499978115.8,286047051.4,N
1499978135.6,286047051.2,N
1499978155.4,286047050.1,N
1499978175.3,286047051.6,N
1499978195.1,286047053.5,N
1499978215.8,286047053.4,N
1499978235.7,286047051.0,N
1499978255.5,286047053.0,N
1499978275.3,286047054.4,N
1499978295.2,286047054.8,N
1499978315.9,286047057.2,N
1499978335.7,286047055.4,N
1499978355.6,286047055.3,N
1499978375.4,286047054.7,N
1499978395.2,286047054.9,N
1499978415.0,286047054.7,N
1499978415.9,286047054.7,N
1499978435.8,286047058.0,N
1499978455.6,286047057.4,N
1499978475.4,286047058.8,N
1499978495.3,286047058.8,N
1499978515.1,286047058.4,N
1499978535.8,286047055.9,N
1499978555.7,286047058.0,N
1499978575.5,286047058.0,N
1499978595.3,286047060.4,N
1499978615.2,286047060.2,N
1499978635.9,286047059.8,N
1499978655.7,286047059.9,N
1499978675.6,286047060.1,N
1499978695.4,286047060.6,N
1499978715.2,286047060.9,N
1499978735.1,286047060.7,N
1499978736.0,286047060.7,N
1499978755.8,286047061.8,N
1499978775.6,286047061.9,N
1499978795.5,286047061.5,N
1499978815.3,286047062.0,N
1499978835.1,286047062.0,N
1499978855.9,286047059.2,N
1499978875.7,286047061.0,N
1499978895.5,286047061.9,N
1499978915.3,286047061.6,N
1499978935.2,286047060.7,N
1499978955.0,286047062.2,N
1499978955.9,286047062.2,N
1499978975.7,286047064.7,N
1499978995.6,286047064.9,N
1499979015.4,286047066.5,N
1499979035.2,286047066.3,N
1499979055.1,286047062.5,N
1499979056.0,286047062.5,N
1499979075.8,286047064.9,N
1499979095.6,286047064.4,N
1499979115.5,286047066.3,N
1499979135.3,286047063.7,N
1499979155.1,286047066.6,N
1499979175.9,286047066.1,N
1499979195.7,286047066.5,N
1499979215.5,286047066.1,N
1499979235.3,286047065.3,N
1499979255.2,286047066.5,N
1499979275.0,286047065.9,N
1499979275.9,286047065.9,N
1499979295.7,286047067.3,N
1499979315.6,286047068.4,N
1499979335.4,286047067.6,N
1499979355.2,286047067.6,N
1499979375.1,286047069.1,N
1499979376.0,286047069.1,N
1499979395.8,286047069.4,N
1499979415.6,286047069.9,N
1499979435.5,286047069.7,N
1499979455.3,286047069.8,N
1499979475.1,286047069.7,N
1499979495.9,286047068.7,N
1499979515.7,286047068.9,N
1499979535.5,286047071.6,N
1499979555.3,286047068.7,N
1499979575.2,286047070.7,N
1499979595.0,286047070.1,N
1499979595.9,286047070.1,N
